Regional Weather Roundup
Issued by NWS

Home | Current Version | Previous Version | Graphics & Text | Print | Product List | Glossary On
Versions: 1 2 3 4 5 6 7 8 9 10 11 12 13 14 15 16 17 18 19 20 21 22 23 24 25 26 27 28 29 30 31 32 33 34 35 36 37 38 39 40 41 42 43 44 45 46 47 48 49 50
515
ASUS43 KLOT 090503
RWRIL

ILLINOIS REGIONAL WEATHER ROUNDUP
NATIONAL WEATHER SERVICE CHICAGO/ROMEOVILLE IL
1100 PM CST MON FEB 08 2016

NOTE: "FAIR" INDICATES FEW OR NO CLOUDS BELOW 12,000 FEET WITH NO
SIGNIFICANT WEATHER AND/OR OBSTRUCTIONS TO VISIBILITY.

* THESE STATIONS ARE NOT UNDER NWS QUALITY CONTROL. THEY ALSO MAY NOT
  REPORT WEATHER SUCH AS PRECIPITATION OR FOG.

ILZ001-002-007-009-015-016-024-090600-
NORTHWEST ILLINOIS

CITY           SKY/WX    TMP DP  RH WIND       PRES   REMARKS
MOLINE         FLURRIES  18  10  71 NW14      29.86F WCI   4
STERLING*      CLOUDY    19   9  63 NW12G18   29.79F WCI   7
$$

ILZ003-004-008-010-011-017-018-090600-
NORTH CENTRAL ILLINOIS

CITY           SKY/WX    TMP DP  RH WIND       PRES   REMARKS
ROCKFORD       CLOUDY    20  11  68 N14       29.80S WCI   7
FREEPORT*      CLOUDY    17  11  75 NW18      29.81F WCI   1
DE KALB*       CLOUDY    22  14  74 NW14G20   29.76S WCI   9
$$

ILZ005-006-012>014-019>023-090600-
NORTHEAST ILLINOIS

CITY           SKY/WX    TMP DP  RH WIND       PRES   REMARKS
CHICAGO-OHARE  LGT SNOW  22  17  81 NW14      29.73S WCI   9
CHICAGO-MIDWAY LGT SNOW  24  17  74 W14       29.74S WCI  12
AURORA         LGT SNOW  22  16  78 NW17      29.76F WCI   8
LANSING*       CLOUDY    25  19  78 NW12      29.74S WCI  14
WAUKEGAN       LGT SNOW  21  17  84 NW9       29.72S FOG     WCI  11
DUPAGE AIRPORT MIX PCPN  22  14  71 NW20      29.75S WCI   7
WHEELING       FLURRIES  21  16  81 NW15      29.74F WCI   8
NORTHERLY ISL    N/A     23  19  85 W10         N/A  WCI  13
$$

LMZ740>746-090600-
SOUTHERN LAKE MICHIGAN

STATION/POSITION SKY/WX   TEMP    WIND        PRES    VSBY  WAVE
                          AIR SEA DIR/SP/G                  HT/PER
                          (F)     (DEG/KT/KT) (MB)    (MI)  (FT/S)
HARRISON CRIB              25     300/ 19/ 22   N/A
BURNHAM HARBOR             24     300/ 10/ 16   N/A
CALUMET HARBOR             25     270/  6/ 14 1006.3F
BURNS HARBOR               27     290/ 14/ 18 1006.8F
MICHIGAN CITY              27     280/ 20/ 21   N/A
$$

ILZ025>027-034>036-040-047-049-050-058-095>099-090600-
WEST-CENTRAL ILLINOIS

CITY           SKY/WX    TMP DP  RH WIND       PRES   REMARKS
QUINCY         LGT SNOW  17  12  80 NW18G26   29.92F WCI   1
MACOMB*        CLOUDY    18  13  81 NW17G26   29.90F WCI   3
$$

ILZ028>032-037-038-041>044-048-051>054-059>061-090600-
CENTRAL ILLINOIS

CITY           SKY/WX    TMP DP  RH WIND       PRES   REMARKS
BLOOMINGTON    FLURRIES  18  13  80 NW18      29.82S WCI   2
DECATUR        FLURRIES  19  12  74 NW13G24   29.84F WCI   6
PEORIA         CLOUDY    18  10  71 NW9G20    29.85F WCI   7
LINCOLN*       CLOUDY    20  13  76 NW8G16    29.86S WCI  10
SPRINGFIELD    CLOUDY    20  11  68 NW13      29.88F WCI   7
TAYLORVILLE    NOT AVBL
$$

ILZ033-039-045-046-055>057-062-063-090600-
EAST-CENTRAL ILLINOIS

CITY           SKY/WX    TMP DP  RH WIND       PRES   REMARKS
CHAMPAIGN      FLURRIES  20  15  81 W17       29.81F WCI   5
MATTOON        LGT SNOW  19  13  77 W20       29.83F WCI   3
$$

ILZ079-100>102-090600-
SOUTHWEST ILLINOIS

CITY           SKY/WX    TMP DP  RH WIND       PRES   REMARKS
ALTON          FLURRIES  21  15  76 W15       29.92F WCI   8
CAHOKIA*       CLOUDY    24  12  60 NW15      29.93F WCI  11
SPARTA*        CLOUDY    23  16  75 NW9       29.93F WCI  13
$$

ILZ064>066-069>071-074>076-080>082-084>086-088>090-092>094-090600-
SOUTH-CENTRAL ILLINOIS

CITY           SKY/WX    TMP DP  RH WIND       PRES   REMARKS
CARBONDALE     FLURRIES  24  16  71 NW15      29.93S WCI  11
MARION         LGT SNOW  25  18  74 NW9G17    29.93S WCI  15
MT. VERNON     CLOUDY    21  12  68 NW7G18    29.90F WCI  13
CENTRALIA*     CLOUDY    22  15  74 NW14G21   29.90S WCI   9
SALEM*         LGT SNOW  22  15  75 NW14      29.89F WCI   9
$$

ILZ067-068-072-073-078-083-087-091-090600-
SOUTHEAST ILLINOIS

CITY           SKY/WX    TMP DP  RH WIND       PRES   REMARKS
LAWRENCEVILLE  FLURRIES  21  17  84 W9        29.87F WCI  11
HARRISBURG*    CLOUDY    24  18  75 NW14      29.92S WCI  12
ROBINSON*      CLOUDY    20  15  80 NW12      29.87S WCI   8
CARMI*         LGT SNOW  22  18  86 NW13      29.90F WCI  10
$$

ABBREVIATIONS USED IN REMARKS
   TC - TEMPERATURE IN CELSIUS
  WCI - WIND CHILL INDEX
   HX - HEAT INDEX
  VSB - VISIBILITY
$$





USA.gov is the U.S. government's official web portal to all federal, state and local government web resources and services.